Theta_e
306 306 308 306 307 295 301 302 297 300 306 302 298 298 299 297 295 294 302 299 302 309 308 311 314 313 314 319 321 323 326 328 331 331 332 334 335 336 338 338 339 342 343 345 344 344 344 345 346 347 350 352 352 353 353 355 356 357 357 358 358 358 359
307 310 308 308 307 308 302 297 301 305 308 306 300 292 298 294 291 295 297 296 298 300 298 312 314 312 312 315 318 320 324 326 327 328 331 333 334 336 338 340 341 343 343 343 343 344 344 344 345 347 351 352 354 354 353 354 355 355 357 357 357 358 359
306 307 308 305 308 308 304 302 308 300 295 294 303 298 290 290 290 292 296 298 298 301 301 309 312 311 312 314 319 320 321 324 325 326 329 333 334 335 336 338 340 340 341 342 343 343 343 344 347 349 350 350 352 353 353 353 354 355 356 356 358 359 359
305 305 305 298 301 305 305 307 303 308 303 300 297 297 299 298 292 291 292 295 294 303 303 309 313 314 316 315 316 319 321 323 325 327 327 329 332 334 335 336 337 339 340 341 342 342 342 343 345 345 346 348 348 349 352 352 353 356 357 356 357 357 358
304 299 303 301 302 299 300 301 301 301 302 304 304 301 298 295 294 293 293 291 298 306 311 308 311 319 319 319 318 320 322 324 326 327 328 329 331 333 333 335 336 338 339 340 341 342 343 343 345 345 344 345 347 348 350 351 352 353 353 355 356 357 358
298 301 305 306 306 305 303 302 300 301 299 296 294 294 300 299 296 292 292 291 301 305 313 315 311 321 320 322 321 322 322 323 326 327 329 332 330 333 334 335 335 337 339 340 341 342 343 342 342 343 343 344 345 347 348 349 350 351 351 353 355 356 358
300 302 305 309 309 309 307 305 302 304 303 302 298 292 296 298 298 300 300 295 298 311 315 317 318 319 320 323 322 321 322 324 325 327 328 333 335 332 331 333 334 335 338 340 340 343 343 342 343 342 343 343 344 346 347 348 349 350 350 352 355 357 357
303 304 305 305 305 305 305 305 306 304 301 302 300 300 304 297 298 296 297 294 299 309 322 319 318 326 322 324 322 324 323 323 325 326 328 333 335 336 333 333 333 336 338 341 344 345 344 344 346 343 343 344 344 345 346 347 348 349 350 351 353 356 356
297 299 303 303 304 304 302 302 304 305 305 304 305 305 305 298 299 298 296 292 299 308 318 319 319 317 316 318 319 322 322 326 325 326 329 332 337 338 335 334 335 336 335 339 341 343 344 344 344 344 344 343 343 344 345 345 347 349 350 352 352 353 354
288 288 290 293 296 299 302 304 304 304 303 302 302 298 301 294 302 302 297 297 305 311 314 315 316 316 319 321 321 319 320 324 325 326 326 333 335 339 339 339 338 335 337 339 341 343 344 345 344 344 345 344 343 344 345 346 346 348 349 350 351 352 352
295 297 298 299 301 301 298 300 302 302 303 304 304 303 300 295 303 299 302 303 303 306 308 313 314 316 315 317 322 321 321 323 326 329 329 330 335 338 336 340 339 340 342 340 340 342 343 343 345 344 343 343 343 346 346 346 347 348 350 350 352 352 352
298 298 298 300 300 297 300 299 300 303 302 303 302 299 298 311 300 294 303 310 302 304 310 316 320 319 320 320 322 322 323 326 327 326 330 331 330 334 338 339 340 340 338 339 340 342 344 343 345 344 344 344 345 346 345 345 346 347 349 351 352 352 351
297 298 299 301 300 300 300 301 301 301 302 302 300 301 304 306 300 297 309 311 305 306 307 312 319 324 324 318 322 323 323 321 327 328 325 325 327 333 333 338 342 341 340 341 340 342 343 343 344 344 343 344 346 347 347 348 346 348 351 352 352 352 352
297 298 299 301 299 299 299 300 301 302 302 302 302 302 304 304 306 305 312 312 306 307 308 310 314 320 322 323 323 321 320 316 324 324 326 321 323 326 332 336 337 342 342 342 343 342 342 343 344 343 344 345 345 345 345 346 347 347 352 354 353 352 352
295 298 299 300 300 299 298 300 301 301 302 302 303 303 304 305 304 304 306 308 307 311 316 313 317 324 316 315 315 315 321 322 317 320 322 326 327 326 332 337 338 341 343 343 344 344 343 342 344 343 343 346 345 343 344 344 347 348 350 351 353 352 353
293 297 297 297 299 299 298 299 300 300 300 300 302 301 303 303 303 305 304 305 304 312 316 317 320 317 315 316 320 322 324 322 324 324 323 325 329 330 329 332 335 338 339 341 342 342 340 342 344 345 344 346 345 343 344 345 345 347 349 351 351 354 354
292 296 297 296 297 298 295 296 299 302 303 303 304 305 306 305 305 303 302 302 310 313 318 314 315 314 317 319 318 321 322 331 326 328 330 329 329 330 331 331 334 333 335 338 342 341 341 342 342 343 345 344 346 346 347 347 349 347 348 348 352 354 356
291 294 296 296 294 288 291 304 304 305 302 302 301 302 304 306 306 305 308 309 313 315 316 314 314 314 316 318 325 327 328 334 340 336 335 334 336 336 335 332 330 333 337 337 339 341 344 342 340 342 345 345 347 348 347 351 349 349 349 349 351 353 356
290 294 295 292 287 290 302 304 307 307 307 306 304 304 305 306 307 307 307 309 312 317 314 315 317 318 325 329 329 327 335 339 339 340 340 343 343 344 344 343 340 337 339 341 342 343 341 340 342 343 344 344 347 347 349 349 350 350 351 351 351 354 355
293 291 292 285 288 299 301 303 312 318 310 313 306 303 306 307 307 309 307 310 312 317 315 314 318 330 333 335 338 339 338 339 340 338 339 341 341 342 344 344 345 347 342 339 339 341 343 342 341 342 342 343 343 344 347 347 349 352 353 353 353 355 355
288 291 291 291 299 296 299 301 312 314 310 312 311 301 305 309 310 309 310 311 312 313 314 315 324 327 330 329 333 337 339 338 339 338 339 339 341 340 341 342 344 347 349 345 340 344 345 343 342 342 343 343 343 344 344 345 350 348 350 352 353 355 354
293 289 288 290 291 288 296 312 315 318 318 318 316 310 306 313 313 312 311 312 313 314 313 314 324 328 319 316 323 334 338 339 338 338 339 340 340 340 340 342 344 348 350 349 343 341 342 343 343 345 345 344 347 348 345 346 345 346 349 351 354 355 354
291 290 287 288 287 292 308 310 313 316 318 318 318 308 302 315 316 316 312 310 313 315 315 322 327 320 311 313 320 337 338 338 339 339 339 339 339 341 341 341 342 344 348 348 342 342 344 343 347 351 348 345 345 347 348 344 345 347 350 353 353 353 354
289 290 288 287 293 293 301 312 314 316 320 315 311 297 300 313 320 323 325 314 313 315 320 327 324 316 310 312 324 337 339 338 337 338 338 338 338 340 342 343 344 346 350 353 351 347 347 353 350 352 348 347 346 349 348 347 347 350 352 351 355 358 357
289 289 289 292 294 301 305 310 315 317 320 314 301 294 310 317 319 323 327 325 324 322 323 326 321 324 329 331 337 337 337 335 335 337 338 338 338 339 341 342 345 346 347 346 345 346 349 352 351 349 348 350 351 352 353 351 351 352 356 357 357 357 359
288 289 288 289 295 304 314 315 316 318 308 299 300 313 316 319 320 323 327 328 329 326 324 326 325 333 330 335 336 336 336 335 335 336 336 338 339 341 342 342 343 344 344 344 344 344 346 349 351 351 352 353 352 354 353 352 354 355 356 358 358 358 357
291 291 289 288 285 307 313 315 313 316 304 309 315 316 320 321 322 324 327 329 330 328 322 331 333 332 333 334 335 334 334 333 333 334 336 337 337 339 341 341 341 342 341 340 340 342 345 347 351 353 350 352 352 352 355 355 357 356 355 356 358 358 358
287 288 286 288 298 313 316 314 308 316 317 318 318 317 316 321 322 325 326 328 330 329 327 330 332 333 332 332 331 332 333 333 334 335 336 337 338 339 340 341 341 341 340 339 339 341 343 346 349 353 356 353 353 351 348 351 356 361 360 354 357 357 357
294 291 296 313 315 317 318 318 318 318 318 318 317 318 318 319 323 329 327 328 330 331 332 332 331 330 331 331 332 331 331 332 333 333 334 336 337 338 339 339 341 340 338 338 338 339 342 343 345 348 351 349 347 346 346 352 356 360 361 359 355 354 354
304 307 309 315 317 316 317 318 318 316 316 317 317 317 318 320 322 327 327 328 329 330 333 330 329 329 330 330 331 331 332 332 333 334 335 335 336 337 338 339 339 339 340 339 338 338 339 342 343 344 345 346 343 343 349 352 355 357 360 360 358 355 355
297 294 314 313 314 316 316 316 317 318 318 317 317 317 316 319 322 325 329 331 330 330 331 330 328 328 330 329 330 331 331 332 332 332 332 333 335 336 336 338 339 339 339 338 337 337 337 340 342 342 343 343 344 345 347 350 354 357 358 359 358 358 358
296 298 307 314 315 317 318 318 317 316 317 317 317 317 318 321 324 324 325 328 329 330 328 329 329 328 329 328 329 330 331 331 332 332 333 333 334 336 337 338 338 339 339 338 337 337 337 339 341 342 342 342 343 344 345 347 350 351 351 352 353 355 356
296 299 302 312 314 315 315 317 318 318 318 318 317 317 318 320 322 323 325 326 327 327 327 328 328 328 329 330 330 330 331 331 332 333 333 334 335 336 336 337 338 338 338 337 337 337 337 339 341 341 341 342 343 343 344 347 348 347 346 348 349 350 352
292 295 303 313 306 307 311 315 316 318 319 318 317 317 317 318 319 321 321 321 323 325 328 330 329 328 328 330 331 330 330 331 332 333 334 334 334 336 337 338 337 337 337 337 337 337 337 339 339 339 340 340 341 342 343 344 345 345 346 346 346 345 345
293 303 309 314 315 314 313 314 316 318 320 319 317 315 316 317 318 319 319 319 320 321 322 326 330 328 328 329 330 330 330 332 333 334 334 333 333 334 336 335 335 335 337 338 337 337 337 339 339 340 340 341 341 342 342 343 343 343 343 342 341 340 339
304 307 310 313 315 312 312 315 316 317 319 319 317 317 317 318 318 318 317 318 319 319 321 323 327 327 327 328 329 328 329 330 330 330 331 332 333 333 334 334 334 334 335 335 335 335 337 338 338 339 339 340 341 341 343 343 343 342 342 341 339 339 339
301 308 311 314 315 315 315 317 317 318 320 319 317 317 317 317 318 319 317 317 318 320 320 320 321 322 323 325 326 326 326 327 328 329 329 329 330 330 332 333 333 333 334 335 335 336 336 337 338 338 338 339 340 340 341 341 341 340 340 339 338 338 338
Wind_Speed
16 17 15 12 16 11 10 11 16 14 7 9 6 1 2 2 1 9 5 7 8 1 8 10 7 8 12 12 12 13 14 15 12 11 14 16 18 19 19 20 19 20 18 17 18 19 18 19 18 19 18 18 19 17 18 19 19 17 19 19 18 17 16
13 14 17 13 19 5 10 12 12 10 6 9 8 9 2 6 9 5 5 14 11 5 9 9 12 11 12 13 14 15 15 14 12 13 13 14 17 20 21 21 20 19 19 21 21 19 20 21 22 21 19 18 17 17 19 20 19 20 20 19 19 17 17
12 4 13 11 13 14 14 10 12 11 8 12 7 2 12 10 11 6 6 9 12 11 11 5 9 11 12 12 13 14 14 14 14 13 15 14 15 15 16 19 17 18 18 20 21 22 23 22 21 19 19 19 18 18 19 20 21 22 21 18 17 15 16
11 11 13 14 12 7 4 8 12 6 3 9 10 12 2 5 9 2 6 5 13 11 12 7 8 12 12 13 11 13 15 15 14 13 13 14 14 15 17 19 19 21 22 24 24 23 23 22 21 20 21 19 22 22 21 20 20 17 17 17 17 17 18
12 11 11 14 15 16 10 10 11 7 8 2 8 2 11 7 6 7 7 9 8 6 7 12 10 9 12 11 12 11 12 13 14 14 12 12 15 15 16 18 19 22 22 23 24 23 22 21 19 20 19 21 22 21 21 22 21 21 21 20 18 17 15
11 8 13 18 19 18 15 15 14 14 11 8 11 12 6 10 7 4 6 14 3 4 4 10 14 10 11 12 12 12 14 16 14 12 13 11 12 16 16 18 20 20 20 21 22 20 17 18 18 20 19 19 21 21 21 22 21 20 22 20 18 17 16
8 7 16 19 20 20 18 16 14 15 13 9 9 10 10 7 11 0 4 7 10 7 7 8 9 9 10 11 13 12 11 13 14 14 15 9 10 13 16 16 16 17 18 19 19 18 19 20 18 21 20 19 20 22 21 20 21 22 22 22 19 17 17
1 2 2 5 5 4 14 14 14 15 16 17 15 11 4 9 6 7 6 11 5 5 5 10 10 8 4 2 4 10 10 9 10 11 10 4 6 8 10 11 13 13 14 12 10 12 14 15 14 17 17 18 19 20 20 20 23 24 22 20 18 17 17
6 7 7 9 4 6 10 11 13 15 16 19 12 4 2 8 13 15 9 17 4 4 1 2 4 5 7 9 8 8 10 9 9 10 7 3 5 5 9 11 12 11 13 14 16 16 16 17 15 16 16 17 18 19 20 21 21 22 21 18 18 19 20
15 15 16 16 13 10 8 10 14 16 22 22 15 14 6 9 10 15 14 13 2 3 1 3 5 5 6 9 8 4 7 8 8 5 2 4 6 8 9 9 10 14 15 14 14 15 14 14 15 16 17 17 18 18 20 21 20 20 20 18 19 19 20
4 2 3 4 6 2 9 13 17 17 21 22 19 10 11 14 7 13 16 8 3 6 8 4 5 5 9 10 9 7 6 8 7 5 4 5 6 8 10 11 11 10 9 14 16 17 15 16 16 15 17 18 18 16 18 20 18 18 18 18 18 18 20
3 7 8 8 6 6 7 8 11 18 19 22 22 19 14 8 6 14 14 9 11 10 4 6 6 6 7 9 9 8 7 6 4 3 4 5 6 8 7 9 11 13 15 16 15 15 15 14 15 15 16 17 17 16 18 18 18 17 15 17 17 16 18
7 8 11 8 6 7 8 11 10 13 18 21 25 22 11 12 14 17 5 9 10 12 13 5 7 7 8 10 10 8 4 1 3 2 3 6 8 6 8 10 10 11 12 14 15 14 15 15 16 17 16 16 16 14 14 14 17 18 16 15 16 17 17
7 8 9 8 5 6 9 12 13 14 14 18 20 19 20 16 12 15 6 11 14 14 15 15 10 6 6 3 5 3 4 4 6 6 6 7 8 8 9 10 12 12 13 13 13 14 14 15 16 16 15 16 17 17 17 17 17 17 14 14 15 17 18
6 7 5 6 7 8 12 11 13 13 13 13 13 15 19 18 19 22 10 9 13 10 9 14 11 6 1 3 7 9 6 4 4 4 6 5 5 7 8 8 10 11 11 11 11 13 14 17 18 17 17 18 16 19 17 19 17 17 16 16 16 18 17
4 1 3 9 12 12 12 14 16 16 14 14 12 13 12 14 14 13 17 12 13 5 5 6 3 4 6 8 9 8 8 5 2 5 7 7 7 5 5 7 7 9 11 11 13 15 17 17 16 15 16 15 15 17 17 18 18 17 17 16 18 16 16
5 3 3 9 13 10 14 19 19 15 14 14 10 11 11 16 12 14 15 15 5 7 6 8 9 11 12 12 8 7 9 7 6 7 6 7 7 7 5 7 8 10 12 13 14 15 14 14 15 18 16 15 16 17 16 17 13 16 17 18 16 16 13
4 9 6 8 5 11 12 3 1 11 19 17 16 15 14 13 15 13 7 10 8 11 8 11 11 13 14 13 11 5 7 6 5 6 5 5 6 6 6 7 9 9 9 10 12 15 14 16 19 16 14 14 13 12 13 11 14 16 17 16 16 15 14
4 7 9 6 11 12 6 10 3 2 7 10 18 22 18 17 15 15 15 14 11 8 11 14 14 15 7 2 4 6 5 4 4 5 4 4 4 5 6 6 7 7 9 10 11 11 14 16 13 11 12 13 10 10 10 13 14 15 15 16 16 14 14
6 5 5 7 11 6 15 9 7 8 1 6 7 15 20 21 18 14 16 13 12 8 11 15 11 5 4 4 3 3 3 4 4 4 4 3 3 4 5 7 8 8 9 10 11 11 10 10 12 13 13 13 13 13 13 13 12 12 11 11 11 10 12
7 5 9 14 11 17 15 9 6 6 5 6 4 6 7 10 12 14 12 13 14 8 10 8 2 3 4 3 4 4 4 5 4 4 3 3 3 4 6 7 8 9 9 10 10 7 8 11 12 13 11 13 12 12 14 13 12 13 12 12 12 12 14
8 9 10 10 7 10 3 8 3 1 4 4 5 3 7 6 9 10 13 14 13 11 7 6 5 6 5 8 7 7 6 6 6 4 3 2 2 3 5 6 6 7 8 7 8 8 10 11 12 11 12 13 12 11 13 13 15 15 14 14 13 14 15
8 10 11 10 9 6 4 4 4 6 4 4 3 3 9 2 4 11 16 18 15 14 11 10 10 7 9 10 8 8 9 7 5 5 3 1 1 3 4 6 7 7 7 5 5 6 7 9 9 10 12 14 14 13 14 15 15 15 15 15 15 17 17
12 10 10 12 6 6 5 2 4 8 5 1 4 7 6 6 10 11 9 14 17 13 11 13 12 12 9 10 5 10 9 8 6 5 4 3 3 4 5 6 5 5 6 6 8 6 4 2 3 9 11 12 13 12 12 12 13 14 15 15 13 11 10
13 13 11 9 9 6 11 8 6 7 6 3 8 11 2 6 12 11 10 12 13 5 10 11 10 10 1 3 10 11 10 9 6 4 3 3 2 4 6 6 6 7 9 10 9 8 6 4 1 6 9 9 9 8 8 9 10 7 2 2 3 4 5
13 12 12 11 8 2 2 7 5 3 2 7 9 4 8 11 13 12 12 13 11 8 7 10 8 5 7 10 9 11 9 8 7 6 5 4 5 6 7 8 8 9 10 11 11 11 9 6 4 2 5 7 7 7 7 8 5 3 3 5 7 8 10
10 10 11 8 11 5 4 4 4 4 6 2 5 11 12 8 12 14 13 11 10 6 9 3 3 9 10 10 10 10 10 8 7 7 6 6 7 7 8 10 10 9 10 11 12 10 9 9 6 4 6 6 6 6 6 5 5 2 1 5 7 8 9
10 10 13 8 3 7 5 4 5 3 4 6 6 7 12 10 9 11 11 11 9 7 6 6 4 6 10 11 11 11 9 8 7 7 7 7 8 8 9 9 9 10 10 10 10 11 10 10 10 8 8 9 8 8 7 3 3 2 2 3 5 7 8
9 7 5 1 6 6 5 4 5 3 2 2 2 5 8 10 9 9 8 10 8 5 6 8 8 7 5 10 11 11 10 9 8 8 8 8 8 8 9 10 10 10 10 11 11 11 11 11 11 11 9 11 11 10 5 4 4 3 2 2 4 6 7
11 15 13 6 5 6 6 4 2 1 0 1 2 4 5 7 9 7 6 7 5 4 6 9 8 8 9 10 10 11 10 10 9 8 9 9 8 8 9 10 10 10 10 10 11 12 11 11 11 11 10 11 12 8 6 6 5 5 4 3 3 2 4
7 6 5 8 6 9 8 6 4 2 3 4 3 4 5 6 8 6 6 4 1 3 6 7 9 10 10 11 10 10 10 9 9 9 10 10 9 9 10 9 10 9 9 10 11 12 11 10 10 10 10 10 9 8 8 7 6 6 6 6 5 4 3
8 8 9 8 6 4 7 6 6 3 4 5 5 5 5 5 4 5 7 4 2 4 7 8 9 9 9 10 10 10 10 10 10 9 10 10 11 9 9 10 10 11 11 11 11 11 11 9 9 10 10 10 9 8 8 7 7 7 8 7 6 6 5
10 15 17 11 7 5 6 6 5 4 4 5 7 7 6 5 4 6 8 8 3 3 7 9 10 9 10 10 11 11 11 10 10 10 10 10 11 10 11 10 11 10 11 12 12 12 11 10 10 11 11 10 9 9 8 6 6 7 7 6 6 6 5
10 9 9 13 8 6 5 6 6 7 7 9 10 9 9 6 6 6 7 7 7 6 5 9 9 10 10 11 11 12 11 11 12 12 12 13 14 14 12 12 14 15 14 14 14 13 12 10 11 11 11 11 9 9 8 7 6 6 6 5 6 6 5
11 11 10 10 7 4 5 5 6 8 8 11 13 10 9 7 7 7 8 8 8 8 10 8 9 9 9 11 11 12 11 10 10 10 11 12 13 13 13 14 15 14 14 15 16 15 13 11 11 11 11 10 10 9 9 8 8 8 7 8 8 7 7
19 18 16 12 8 4 9 7 9 12 11 13 14 11 9 8 7 7 9 10 9 8 9 11 10 10 8 7 8 10 11 11 11 12 11 12 12 11 11 13 14 15 15 15 16 15 12 12 12 11 12 12 11 11 10 9 9 9 9 8 8 7 7
15 13 11 12 9 8 11 11 12 14 14 14 13 11 10 8 7 8 9 9 10 9 8 9 9 9 10 9 8 9 10 11 11 13 14 13 13 13 13 13 14 14 14 13 12 13 13 13 13 13 13 13 12 12 12 11 11 11 12 11 10 9 8
Wind_Direction
176 193 180 181 160 201 174 169 208 215 131 184 234 7 53 55 315 244 163 261 252 294 262 241 233 221 220 215 217 218 224 224 212 199 200 201 202 201 200 203 203 202 197 194 198 198 197 196 194 195 192 187 190 187 188 191 193 192 192 195 195 194 195
201 198 179 178 189 147 126 202 200 106 127 224 223 238 140 222 241 231 179 229 242 221 270 174 186 199 217 213 213 219 223 224 216 215 207 201 200 199 199 199 199 195 196 197 200 200 197 194 195 195 191 189 188 188 190 191 190 193 195 194 195 194 194
181 113 175 179 195 153 196 209 138 163 173 202 185 208 236 220 230 241 213 234 249 225 223 153 183 197 209 216 212 210 218 226 226 221 212 204 201 199 199 203 202 200 199 200 201 202 201 198 195 191 188 188 188 190 193 194 195 197 194 193 195 195 194
148 169 180 198 182 203 14 124 168 189 178 205 168 205 334 205 243 222 243 168 250 202 222 172 193 197 205 212 215 219 215 212 216 222 213 201 193 197 200 202 202 200 202 202 201 201 201 199 195 196 193 192 194 194 192 195 197 194 192 194 193 194 195
147 196 189 199 185 188 189 195 198 157 213 20 205 175 213 207 227 226 264 259 245 183 175 206 212 205 216 211 209 216 225 227 222 221 212 196 194 196 201 203 202 201 203 204 204 204 203 200 194 192 190 192 195 193 194 194 191 188 190 193 193 196 195
205 193 179 204 201 198 196 197 202 184 174 174 187 219 170 220 208 219 193 251 272 134 169 187 205 203 212 218 216 213 218 221 225 229 229 203 195 199 200 202 201 201 201 202 204 201 198 197 197 191 194 193 193 195 196 194 195 194 196 195 195 193 193
209 181 191 210 210 202 201 195 202 188 194 179 200 225 198 187 224 196 247 300 277 138 164 198 207 208 212 212 208 221 224 226 225 226 228 210 196 202 207 206 206 204 201 200 199 193 188 192 191 191 193 193 193 195 195 193 194 196 196 196 192 187 189
88 228 303 293 321 250 216 209 203 187 198 195 211 224 120 195 174 203 212 246 244 150 163 190 210 219 241 304 238 229 239 242 244 248 252 209 186 204 209 207 207 206 203 190 189 192 196 198 193 190 190 193 194 194 194 193 196 196 195 195 191 187 189
230 230 218 228 170 213 221 207 206 201 201 202 210 91 92 221 206 202 194 236 218 169 205 279 237 234 243 241 228 219 237 242 241 242 241 205 207 193 202 201 200 199 199 192 197 197 196 196 192 190 189 190 193 195 194 196 198 196 194 193 191 189 191
200 200 205 212 208 207 204 222 208 199 203 203 202 211 166 228 195 198 216 229 150 69 20 206 236 247 268 261 258 223 235 254 257 254 221 192 199 207 202 197 190 202 204 200 197 196 196 192 191 193 195 193 194 194 194 195 196 193 194 191 192 188 190
253 331 346 11 353 314 213 210 215 207 207 209 208 211 213 219 138 210 225 220 241 178 198 177 228 236 243 252 249 239 240 256 251 238 235 216 205 206 204 196 202 204 204 205 200 197 194 191 187 190 192 194 195 191 194 196 196 192 190 188 187 185 189
340 313 307 306 310 279 280 281 231 215 209 211 213 210 220 108 135 240 224 189 230 228 191 188 198 224 240 257 272 273 249 228 255 256 237 231 220 216 204 203 201 202 208 206 201 197 192 191 189 191 191 192 192 189 194 195 193 191 186 184 180 184 190
326 303 290 294 285 255 258 259 261 241 221 211 217 219 206 159 212 239 105 165 208 231 239 229 228 202 222 230 242 249 276 188 162 172 224 232 231 220 210 213 210 211 209 209 205 198 197 190 188 191 191 194 194 194 194 188 193 194 186 177 179 186 189
306 294 287 292 276 271 260 255 259 256 251 240 226 222 223 213 226 247 200 183 210 221 231 231 231 232 245 294 337 316 241 194 165 189 197 221 230 224 219 216 213 213 213 206 202 202 199 195 195 193 193 194 193 191 191 188 192 195 178 176 183 192 196
303 296 290 273 293 301 277 274 260 257 258 262 251 241 228 220 228 236 211 190 231 208 211 231 223 205 30 277 257 254 247 265 281 287 267 254 231 218 228 228 224 223 218 207 197 197 198 200 199 197 197 197 194 196 192 191 190 188 182 188 188 195 200
289 208 330 325 319 305 281 268 260 255 252 249 237 233 228 224 225 229 237 229 233 175 206 262 241 167 203 227 240 258 273 270 231 256 266 264 273 277 250 245 236 232 226 212 202 201 200 200 197 197 199 195 189 196 190 191 190 186 187 187 192 197 200
261 258 335 335 319 298 268 246 241 247 254 248 246 243 221 227 229 229 221 236 208 222 192 231 239 230 223 228 234 249 258 260 267 263 267 279 287 285 275 259 245 236 229 219 210 206 203 197 196 201 196 190 192 195 189 190 176 183 187 191 193 199 191
280 292 322 315 284 240 240 10 25 216 238 243 245 241 232 224 212 242 252 254 228 220 185 215 224 231 235 234 235 210 232 230 231 241 239 262 278 287 280 268 261 253 233 231 221 211 206 204 203 201 193 197 200 192 191 167 177 190 189 195 194 195 188
285 299 315 270 237 230 350 310 336 292 275 240 235 244 238 231 225 234 240 243 242 204 202 217 225 231 241 72 165 191 194 215 220 237 259 256 276 290 292 290 283 271 257 237 226 210 211 208 200 187 187 194 185 184 177 181 191 193 195 198 198 193 190
267 276 225 233 214 351 314 323 20 341 284 7 286 247 233 226 221 212 233 233 241 215 212 225 233 253 110 101 101 167 184 198 217 217 235 250 279 287 301 302 296 288 277 259 237 220 207 195 198 194 192 187 186 184 182 188 188 191 190 194 197 187 191
246 238 242 251 333 325 297 297 43 7 9 335 324 270 246 230 213 208 214 221 234 225 217 233 45 128 147 200 199 186 193 192 209 227 237 260 279 295 292 294 295 297 285 273 261 226 200 191 191 188 179 177 180 177 180 188 183 189 191 191 191 188 194
220 252 272 272 255 250 236 113 71 260 301 272 229 203 271 253 250 220 213 215 220 214 174 190 174 144 201 231 229 181 180 179 184 195 208 235 271 308 308 305 305 305 298 273 242 228 199 191 191 178 172 172 170 171 181 181 184 190 191 196 192 191 199
210 227 238 241 242 226 76 164 353 325 315 274 237 220 261 133 251 215 213 220 218 207 177 171 157 175 218 232 228 155 166 168 175 173 165 115 25 3 349 345 341 337 322 288 222 196 201 193 183 169 172 173 176 180 183 187 188 189 193 195 192 198 200
222 226 229 240 228 241 288 75 356 333 335 334 215 262 270 2 341 339 309 245 224 208 183 159 174 182 218 228 206 142 153 153 152 162 139 99 48 30 23 29 26 29 25 60 62 77 96 56 161 178 174 174 183 181 182 183 189 196 203 203 203 203 201
219 224 247 267 265 256 274 303 347 335 305 237 214 230 57 331 325 313 305 289 287 293 180 172 187 200 219 53 101 128 135 142 139 132 113 86 49 39 37 34 49 61 58 59 58 46 28 358 288 187 177 172 178 176 171 186 201 204 154 132 183 193 196
217 217 229 236 267 220 205 280 312 315 276 217 230 20 285 306 313 316 302 296 285 292 239 207 202 120 117 119 120 126 136 135 134 127 120 115 83 67 55 46 51 66 65 62 60 49 37 19 24 167 163 165 167 155 169 184 182 163 161 167 172 181 186
227 223 228 227 238 139 188 313 268 160 234 329 357 315 306 310 312 307 309 293 297 272 254 291 68 133 131 130 127 125 127 131 128 129 121 93 75 62 62 57 53 62 66 62 57 51 42 40 35 72 125 113 104 111 96 54 28 36 177 197 189 193 196
225 213 219 223 195 101 163 207 244 192 253 346 327 329 298 313 305 307 307 300 293 277 222 160 154 137 131 125 131 129 125 123 123 118 108 97 86 76 71 72 69 66 69 65 61 52 46 46 52 53 84 90 87 84 69 49 45 46 72 174 191 197 203
248 252 267 178 119 125 175 207 250 284 289 307 318 279 290 297 304 301 296 297 294 253 163 143 140 143 144 138 139 132 130 126 123 116 108 102 95 87 84 83 83 78 74 72 71 66 60 57 55 64 76 94 93 84 68 70 68 74 86 143 180 196 202
285 276 270 246 166 155 162 195 227 221 344 72 346 339 321 321 313 305 299 303 277 197 161 140 151 152 149 139 131 126 125 121 117 113 105 98 94 93 93 90 89 89 85 80 75 72 65 63 68 68 71 78 81 77 75 70 72 74 88 105 121 168 199
296 272 184 221 193 166 164 166 162 129 90 53 32 15 350 329 313 341 346 284 237 167 156 153 146 145 146 135 129 124 121 117 112 107 102 94 92 90 86 87 91 88 85 80 76 76 74 67 68 67 69 69 71 67 59 55 58 63 72 81 92 95 92
262 273 284 256 247 185 159 171 185 164 80 73 62 43 9 326 340 34 27 345 159 144 132 130 136 133 132 129 127 124 120 118 114 106 103 101 92 84 84 87 86 85 81 79 77 74 71 68 66 67 68 66 65 63 59 58 61 64 63 64 70 67 67
301 306 290 229 200 173 156 150 143 126 111 93 67 59 42 5 28 49 55 54 51 117 123 125 128 130 128 123 122 119 117 112 110 106 104 100 95 95 90 86 85 84 83 79 76 73 68 64 64 65 65 65 65 65 65 68 77 84 90 88 75 69 64
261 245 244 191 194 187 175 153 140 117 99 81 73 65 62 41 42 52 70 51 18 18 53 119 121 123 120 118 116 110 108 109 110 109 104 100 97 92 88 87 86 85 82 82 80 75 70 65 63 63 62 62 60 62 62 63 72 86 96 95 90 80 71
240 235 246 241 288 89 143 153 119 103 91 81 70 51 54 50 43 41 48 55 39 37 32 41 102 103 105 111 113 109 101 92 85 84 89 89 89 88 90 90 86 83 82 81 80 76 73 71 70 67 65 61 60 59 60 63 69 76 86 88 83 79 71
261 271 284 274 241 210 145 123 97 81 73 78 72 60 49 46 43 35 53 52 57 42 42 48 58 73 68 70 82 86 85 84 82 81 79 77 76 77 75 76 78 77 73 71 70 70 70 67 64 60 57 51 49 51 53 59 65 70 73 79 79 78 76
255 266 282 302 274 166 129 109 93 82 73 69 70 57 47 49 56 61 49 42 35 34 37 42 32 32 52 60 66 79 88 83 79 81 78 71 64 63 62 60 59 63 66 68 67 66 65 62 60 57 54 49 45 44 44 47 52 57 57 56 55 51 49